• In Portugal
  • List of Countries
  • For 7 days
  • Water Temperature
  • Satellite Maps
  • Weather Map
  • Weather Widgets
  • user-avatar
    Login

    Hourly Weather Santiago del Estero

    Today, 16 December, Saturday

    Time Temperature Precipitation Wind Pressure Humidity
    00:00 +33°C° 0 mm 3 mps 735 mmHg 45%
    01:00 +31°C° 0 mm 3 mps 734 mmHg 46%
    02:00 +31°C° 0 mm 3 mps 734 mmHg 46%
    03:00 +30°C° 0 mm 4 mps 734 mmHg 46%
    04:00 +30°C° 0 mm 4 mps 734 mmHg 46%
    05:00 +30°C° 0 mm 4 mps 734 mmHg 45%
    06:00 +33°C° 0 mm 6 mps 735 mmHg 42%
    07:00 +35°C° 0 mm 8 mps 735 mmHg 39%
    08:00 +38°C° 0 mm 10 mps 735 mmHg 34%
    09:00 +40°C° 0 mm 10 mps 734 mmHg 32%
    10:00 +43°C° 0 mm 10 mps 734 mmHg 29%
    11:00 +44°C° 0 mm 10 mps 734 mmHg 26%
    12:00 +45°C° 0 mm 10 mps 733 mmHg 25%
    13:00 +47°C° 0 mm 9 mps 732 mmHg 24%
    14:00 +48°C° 0 mm 9 mps 731 mmHg 22%
    15:00 +48°C° 0 mm 9 mps 731 mmHg 22%
    16:00 +48°C° 0 mm 8 mps 730 mmHg 22%
    17:00 +48°C° 0 mm 8 mps 729 mmHg 22%
    18:00 +45°C° 0 mm 7 mps 730 mmHg 24%
    19:00 +42°C° 0 mm 5 mps 730 mmHg 27%
    20:00 +40°C° 0 mm 4 mps 730 mmHg 30%
    21:00 +38°C° 0 mm 4 mps 730 mmHg 30%
    22:00 +39°C° 0 mm 5 mps 731 mmHg 30%
    23:00 +37°C° 0 mm 5 mps 731 mmHg 30%

    Tomorrow, 17 December, Sunday

    Time Temperature Precipitation Wind Pressure Humidity
    00:00 +37°C° 0 mm 5 mps 731 mmHg 32%
    01:00 +36°C° 0 mm 4 mps 731 mmHg 33%
    02:00 +35°C° 0 mm 4 mps 730 mmHg 34%
    03:00 +34°C° 0 mm 4 mps 731 mmHg 35%
    04:00 +34°C° 0 mm 4 mps 731 mmHg 37%
    05:00 +33°C° 0 mm 4 mps 732 mmHg 38%
    06:00 +33°C° 0.2 mm 7 mps 734 mmHg 46%
    07:00 +32°C° 0.2 mm 10 mps 736 mmHg 55%
    08:00 +31°C° 0.2 mm 12 mps 738 mmHg 64%
    09:00 +29°C° 0.2 mm 12 mps 740 mmHg 61%
    10:00 +28°C° 0.2 mm 11 mps 742 mmHg 58%
    11:00 +27°C° 0.2 mm 11 mps 744 mmHg 56%
    12:00 +27°C° 0.1 mm 10 mps 744 mmHg 49%
    13:00 +28°C° 0.1 mm 9 mps 745 mmHg 43%
    14:00 +28°C° 0.1 mm 8 mps 745 mmHg 37%
    15:00 +29°C° 0 mm 7 mps 744 mmHg 35%
    16:00 +29°C° 0 mm 7 mps 744 mmHg 32%
    17:00 +30°C° 0 mm 6 mps 743 mmHg 30%
    18:00 +28°C° 0 mm 4 mps 743 mmHg 31%
    19:00 +27°C° 0 mm 3 mps 744 mmHg 33%
    20:00 +26°C° 0 mm 2 mps 745 mmHg 34%
    21:00 +25°C° 0 mm 2 mps 745 mmHg 33%
    22:00 +25°C° 0 mm 3 mps 746 mmHg 32%
    23:00 +25°C° 0 mm 3 mps 746 mmHg 32%

    Day after tomorrow, 18 December, Monday

    Time Temperature Precipitation Wind Pressure Humidity
    00:00 +24°C° 0 mm 3 mps 746 mmHg 34%
    01:00 +22°C° 0 mm 3 mps 745 mmHg 36%
    02:00 +23°C° 0 mm 2 mps 745 mmHg 38%
    03:00 +21°C° 0 mm 2 mps 745 mmHg 40%
    04:00 +21°C° 0 mm 2 mps 745 mmHg 41%
    05:00 +20°C° 0 mm 2 mps 745 mmHg 43%
    06:00 +22°C° 0 mm 3 mps 745 mmHg 43%
    07:00 +24°C° 0 mm 3 mps 745 mmHg 43%
    08:00 +25°C° 0 mm 3 mps 746 mmHg 43%
    09:00 +27°C° 0 mm 3 mps 745 mmHg 41%
    10:00 +29°C° 0 mm 3 mps 745 mmHg 40%
    11:00 +31°C° 0 mm 3 mps 745 mmHg 39%
    12:00 +33°C° 0 mm 4 mps 744 mmHg 38%
    13:00 +34°C° 0 mm 4 mps 743 mmHg 38%
    14:00 +35°C° 0 mm 4 mps 742 mmHg 37%
    15:00 +35°C° 0 mm 4 mps 741 mmHg 39%
    16:00 +35°C° 0 mm 4 mps 740 mmHg 41%
    17:00 +35°C° 0 mm 4 mps 740 mmHg 42%
    18:00 +34°C° 0 mm 4 mps 740 mmHg 47%
    19:00 +31°C° 0 mm 3 mps 740 mmHg 52%
    20:00 +30°C° 0 mm 2 mps 740 mmHg 57%
    21:00 +29°C° 0 mm 2 mps 741 mmHg 59%
    22:00 +29°C° 0 mm 2 mps 741 mmHg 61%
    23:00 +29°C° 0 mm 2 mps 742 mmHg 63%

    19 December, Tuesday

    Time Temperature Precipitation Wind Pressure Humidity
    00:00 +28°C° 0 mm 2 mps 741 mmHg 65%
    01:00 +28°C° 0 mm 2 mps 741 mmHg 67%
    02:00 +27°C° 0 mm 2 mps 741 mmHg 69%
    03:00 +27°C° 0 mm 2 mps 741 mmHg 71%
    04:00 +26°C° 0 mm 1 mps 740 mmHg 73%
    05:00 +26°C° 0 mm 1 mps 740 mmHg 75%
    06:00 +27°C° 0 mm 2 mps 741 mmHg 72%
    07:00 +28°C° 0 mm 2 mps 741 mmHg 68%
    08:00 +29°C° 0 mm 2 mps 741 mmHg 64%
    09:00 +31°C° 0 mm 3 mps 741 mmHg 58%
    10:00 +34°C° 0 mm 3 mps 741 mmHg 51%
    11:00 +36°C° 0 mm 4 mps 740 mmHg 45%
    12:00 +37°C° 0 mm 4 mps 739 mmHg 43%
    13:00 +38°C° 0 mm 4 mps 739 mmHg 40%
    14:00 +40°C° 0 mm 4 mps 738 mmHg 38%
    15:00 +39°C° 0 mm 5 mps 738 mmHg 40%
    16:00 +39°C° 0 mm 5 mps 738 mmHg 41%
    17:00 +37°C° 0 mm 5 mps 737 mmHg 43%
    18:00 +35°C° 0.9 mm 5 mps 738 mmHg 51%
    19:00 +34°C° 0.9 mm 5 mps 738 mmHg 59%
    20:00 +32°C° 0.9 mm 5 mps 739 mmHg 67%
    21:00 +29°C° 2.9 mm 5 mps 739 mmHg 74%
    22:00 +28°C° 2.9 mm 5 mps 740 mmHg 81%
    23:00 +27°C° 2.9 mm 5 mps 740 mmHg 88%

    20 December, Wednesday

    Time Temperature Precipitation Wind Pressure Humidity
    00:00 +27°C° 2.9 mm 5 mps 740 mmHg 90%
    01:00 +26°C° 2.9 mm 5 mps 740 mmHg 91%
    02:00 +26°C° 2.9 mm 4 mps 740 mmHg 93%
    03:00 +26°C° 1 mm 4 mps 740 mmHg 93%
    04:00 +25°C° 1 mm 4 mps 740 mmHg 94%
    05:00 +25°C° 1 mm 3 mps 740 mmHg 95%
    06:00 +26°C° 0.2 mm 4 mps 740 mmHg 93%
    07:00 +26°C° 0.2 mm 4 mps 740 mmHg 91%
    08:00 +26°C° 0.2 mm 4 mps 741 mmHg 90%
    09:00 +27°C° 0 mm 3 mps 740 mmHg 86%
    10:00 +28°C° 0 mm 3 mps 740 mmHg 82%
    11:00 +28°C° 0 mm 2 mps 739 mmHg 78%
    12:00 +30°C° 0.1 mm 2 mps 739 mmHg 71%
    13:00 +32°C° 0.1 mm 2 mps 738 mmHg 65%
    14:00 +34°C° 0.1 mm 3 mps 737 mmHg 58%
    15:00 +34°C° 0.3 mm 3 mps 737 mmHg 57%
    16:00 +35°C° 0.3 mm 3 mps 736 mmHg 57%
    17:00 +35°C° 0.3 mm 4 mps 736 mmHg 56%
    18:00 +34°C° 0 mm 3 mps 736 mmHg 61%
    19:00 +31°C° 0 mm 3 mps 736 mmHg 65%
    20:00 +30°C° 0 mm 2 mps 736 mmHg 70%
    21:00 +29°C° 0 mm 2 mps 736 mmHg 73%
    22:00 +29°C° 0 mm 2 mps 736 mmHg 76%
    23:00 +28°C° 0 mm 2 mps 737 mmHg 78%

    21 December, Thursday

    Time Temperature Precipitation Wind Pressure Humidity
    00:00 +28°C° 0 mm 2 mps 736 mmHg 80%
    01:00 +27°C° 0 mm 2 mps 736 mmHg 82%
    02:00 +27°C° 0 mm 2 mps 735 mmHg 85%
    03:00 +26°C° 0 mm 2 mps 735 mmHg 86%
    04:00 +26°C° 0 mm 2 mps 735 mmHg 87%
    05:00 +26°C° 0 mm 2 mps 735 mmHg 88%
    06:00 +27°C° 0 mm 3 mps 736 mmHg 82%
    07:00 +29°C° 0 mm 4 mps 737 mmHg 76%
    08:00 +30°C° 0 mm 4 mps 737 mmHg 70%
    09:00 +33°C° 0.1 mm 4 mps 737 mmHg 63%
    10:00 +35°C° 0.1 mm 4 mps 737 mmHg 56%
    11:00 +37°C° 0.1 mm 4 mps 737 mmHg 50%
    12:00 +37°C° 0 mm 4 mps 736 mmHg 48%
    13:00 +38°C° 0 mm 4 mps 735 mmHg 46%
    14:00 +38°C° 0 mm 4 mps 735 mmHg 44%
    15:00 +38°C° 0 mm 3 mps 735 mmHg 44%
    16:00 +38°C° 0 mm 3 mps 734 mmHg 44%
    17:00 +38°C° 0 mm 3 mps 734 mmHg 44%
    18:00 +37°C° 0 mm 3 mps 735 mmHg 47%
    19:00 +35°C° 0 mm 2 mps 735 mmHg 50%
    20:00 +33°C° 0 mm 1 mps 735 mmHg 53%
    21:00 +34°C° 0.2 mm 2 mps 736 mmHg 55%
    22:00 +32°C° 0.2 mm 2 mps 736 mmHg 57%
    23:00 +32°C° 0.2 mm 2 mps 736 mmHg 59%
    Show more